Terminal Aerodrome Forecast
Issued by NWS

Home | Current Version | Previous Version | Text Only | Print | Product List | Glossary On
Versions: 1 2 3 4 5 6 7 8 9 10 11 12 13 14 15 16 17 18 19
000
FTUS43 KILX 032055 AAA
TAFCMI
TAF AMD
KCMI 032055Z 0321/0418 05008KT P6SM VCSH SCT030 BKN110
      TEMPO 0321/0323 6SM -SHRA BKN030
     FM032300 05007KT P6SM BKN035
     FM040100 03005KT P6SM SCT040
     FM040900 03003KT 4SM BR SCT250
     FM041500 VRB04KT P6SM FEW025 SCT250=

USA.gov is the U.S. government's official web portal to all federal, state and local government web resources and services.